Weather History for Blanc-Sablon, QC

Change the Weather History Date:

Saturday, December 8, 2012

  Actual Average Record
Temperature  
Mean Temperature 24 °F -  
Max Temperature 32 °F 23 °F 41 °F (2008)
Min Temperature 17 °F 10 °F 5 °F (2000)
Degree Days  
Heating Degree Days 40    
Moisture  
Dew Point 20 °F    
Average Humidity 82    
Maximum Humidity 93    
Minimum Humidity 64    
Precipitation  
Precipitation 0.00 in - - ()
Sea Level Pressure  
Sea Level Pressure 30.03 in    
Wind  
Wind Speed 4 mph ()    
Max Wind Speed 12 mph    
Max Gust Speed -    
Visibility 15.0 miles    
Events      
Averages and records for this station are not official NWS values.
T = Trace of Precipitation, MM = Missing Value Source: Averaged Metar Reports

Daily Weather History Graph

Daily Weather History Graph

Search for Another Location

Airport:

Trip Planner

Search our weather history database for the weather conditions in past years. The results will help you decide how hot, cold, wet, or windy it might be!

Date:

Astronomy

Dec. 08, 2012 Rise Set
Actual Time 7:41 AM AST 3:40 PM AST
Civil Twilight 7:01 AM AST 4:20 PM AST
Nautical Twilight 6:18 AM AST 5:02 PM AST
Astronomical Twilight 5:38 AM AST 5:43 PM AST
Moon 1:28 AM AST (12/8) 12:35 PM AST (12/8)
Length of Visible Light 9h 18m
Length of Day
7h 59m
Waning Crescent, 29% of the Moon is Illuminated
Dec 8
Waning Crescent
Dec 13
New
Dec 20
First Quarter
Dec 28
Full
Jan 4
Last Quarter

Hourly Weather History & Observations

Time (AST) Temp. Windchill Dew Point Humidity Pressure Visibility Wind Dir Wind Speed Gust Speed Precip Events Conditions
12:00 AM 19.4 °F - 15.8 °F 86% 29.96 in 15.0 mi Calm Calm - N/A   Mostly Cloudy
1:00 AM 17.6 °F - 15.8 °F 93% 29.96 in 15.0 mi Calm Calm - N/A   Mostly Cloudy
2:00 AM 18 °F - 15 °F 85% 29.97 in 15 mi Calm Calm - -   Mostly Cloudy
2:00 AM 17.6 °F - 15.8 °F 93% 29.97 in 15.0 mi Calm Calm - N/A   Mostly Cloudy
3:00 AM 21.2 °F 11.7 °F 19.4 °F 93% 29.98 in 15.0 mi WNW 8.1 mph - N/A   Mostly Cloudy
4:00 AM 21.2 °F 13.6 °F 19.4 °F 93% 29.97 in 15.0 mi WNW 5.8 mph - N/A   Scattered Clouds
5:00 AM 23.0 °F 13.1 °F 21.2 °F 93% 29.98 in 15.0 mi West 9.2 mph - N/A   Scattered Clouds
7:00 AM 23.0 °F 13.1 °F 21.2 °F 93% 30.00 in 15.0 mi West 9.2 mph - N/A   Mostly Cloudy
8:00 AM 22 °F - 20 °F 90% 30.01 in 15 mi West 10.4 mph - -   Mostly Cloudy
8:00 AM 23.0 °F 12.4 °F 21.2 °F 93% 30.01 in 15.0 mi WNW 10.4 mph - N/A   Mostly Cloudy
9:00 AM 23.0 °F 15.8 °F 19.4 °F 86% 30.02 in 15.0 mi West 5.8 mph - N/A   Mostly Cloudy
10:00 AM 24.8 °F 16.1 °F 19.4 °F 80% 30.03 in 15.0 mi WNW 8.1 mph - N/A   Scattered Clouds
11:00 AM 28.4 °F 23.3 °F 19.4 °F 69% 30.01 in 15.0 mi NW 4.6 mph - N/A   Scattered Clouds
12:00 PM 30.2 °F 25.4 °F 19.4 °F 64% 30.02 in 15.0 mi WNW 4.6 mph - N/A   Scattered Clouds
1:00 PM 32.0 °F 27.5 °F 21.2 °F 64% 30.02 in 15.0 mi WSW 4.6 mph - N/A   Scattered Clouds
2:00 PM 30 °F - 23 °F 67% 30.02 in 15 mi West 8.1 mph - -   Partly Cloudy
2:00 PM 30.2 °F 21.9 °F 23.0 °F 75% 30.02 in 15.0 mi West 9.2 mph - N/A   Scattered Clouds
3:00 PM 30.2 °F 25.4 °F 23.0 °F 75% 30.03 in 15.0 mi West 4.6 mph - N/A   Scattered Clouds
4:00 PM 26.6 °F 20.0 °F 21.2 °F 80% 30.06 in 15.0 mi WNW 5.8 mph - N/A   Scattered Clouds
5:00 PM 26.6 °F 20.0 °F 21.2 °F 80% 30.07 in 15.0 mi NNW 5.8 mph - N/A   Scattered Clouds
6:00 PM 24.8 °F - 19.4 °F 80% 30.09 in 15.0 mi NNE 2.3 mph - N/A   Scattered Clouds
7:00 PM 24.8 °F 16.1 °F 19.4 °F 80% 30.09 in 15.0 mi NNE 8.1 mph - N/A   Scattered Clouds
8:00 PM 24 °F - 19 °F 75% 30.11 in 15 mi NE 4.6 mph - -   Partly Cloudy
9:00 PM 24.8 °F 14.6 °F 19.4 °F 80% 30.12 in 15.0 mi North 10.4 mph - N/A   Scattered Clouds
10:00 PM 23.0 °F 11.7 °F 19.4 °F 86% 30.12 in 15.0 mi NNE 11.5 mph - N/A   Scattered Clouds